Total_Precipitation_Accumulation
2.19 2.42 2.38 2.24 2.25 2.26 2.43 2.68 2.85 2.67 2.42 2.18 1.90 1.69 1.76 1.87 1.91 1.66 1.59 1.77 1.60 1.38 1.30 1.29 1.28 1.30 1.35 1.39 1.44 1.53 1.60 1.68 1.80 2.01 2.36 2.80 3.20 3.61
2.24 2.39 2.41 2.33 2.35 2.25 2.35 2.58 2.82 2.87 2.52 2.12 1.93 1.77 1.75 1.55 1.70 1.50 1.47 1.60 1.47 1.38 1.30 1.25 1.21 1.22 1.24 1.25 1.21 1.21 1.24 1.26 1.29 1.35 1.46 1.63 1.87 2.21
2.19 2.35 2.46 2.63 2.63 2.49 2.47 2.46 2.60 2.77 2.55 2.19 2.01 1.90 1.74 1.57 1.52 1.40 1.32 1.32 1.29 1.37 1.28 1.17 1.06 1.04 1.09 1.11 1.12 1.10 1.05 1.04 1.08 1.11 1.15 1.24 1.31 1.45
2.39 2.58 2.63 2.67 2.61 2.50 2.52 2.50 2.50 2.72 2.66 2.37 2.23 2.08 1.90 1.69 1.58 1.50 1.32 1.23 1.27 1.50 1.42 1.23 1.09 1.05 1.04 1.01 0.97 0.96 1.00 1.02 1.02 1.02 1.04 1.08 1.11 1.16
2.41 2.47 2.47 2.59 2.51 2.47 2.34 2.33 2.37 2.56 2.76 2.57 2.44 2.42 2.23 1.98 1.82 1.64 1.48 1.46 1.24 1.30 1.34 1.25 1.17 1.09 1.03 1.01 1.00 0.99 0.94 0.91 0.91 0.94 0.97 1.02 1.03 1.04
2.27 2.38 2.44 2.46 2.50 2.60 2.46 2.47 2.63 2.75 2.84 2.78 2.66 2.72 2.64 2.38 2.14 1.90 1.70 1.58 1.41 1.18 1.28 1.28 1.25 1.17 1.08 1.01 0.99 0.98 0.99 0.95 0.90 0.91 0.90 0.92 0.98 1.06
2.16 2.14 2.23 2.43 2.50 2.54 2.34 2.47 2.67 2.68 2.64 2.66 2.64 2.78 2.78 2.63 2.29 1.98 1.85 1.82 1.66 1.44 1.38 1.23 1.22 1.21 1.19 1.19 1.16 1.13 1.05 1.03 1.01 0.98 0.95 0.96 1.00 1.11
2.10 2.02 1.94 1.97 2.06 2.19 2.20 2.22 2.35 2.46 2.53 2.54 2.53 2.61 2.66 2.61 2.46 2.23 2.08 1.98 1.86 1.75 1.78 1.67 1.49 1.47 1.34 1.22 1.27 1.22 1.14 1.09 1.05 1.04 1.02 1.00 1.03 1.14
1.75 1.73 1.51 1.44 1.75 1.84 2.02 2.01 1.91 1.94 2.04 2.22 2.32 2.31 2.46 2.54 2.59 2.36 2.27 2.14 1.94 1.92 1.98 1.92 1.77 1.62 1.39 1.32 1.44 1.28 1.21 1.16 1.13 1.12 1.09 1.04 0.99 0.99
1.55 1.51 1.51 1.52 1.60 1.76 1.83 1.79 1.72 1.69 1.73 1.76 1.84 2.05 2.27 2.50 2.57 2.49 2.47 2.32 2.08 1.97 1.97 1.94 1.79 1.69 1.47 1.41 1.44 1.32 1.23 1.18 1.15 1.19 1.26 1.25 1.09 1.02
1.64 1.71 1.74 1.59 1.65 1.67 1.67 1.63 1.60 1.63 1.67 1.67 1.66 1.83 2.03 2.18 2.43 2.46 2.39 2.29 2.05 1.96 1.96 1.91 1.78 1.77 1.67 1.50 1.37 1.32 1.12 1.02 0.97 0.97 1.09 1.34 1.44 1.29
1.93 1.82 1.73 1.55 1.50 1.45 1.45 1.52 1.45 1.45 1.61 1.64 1.59 1.65 1.78 1.94 2.19 2.20 2.14 2.19 2.01 1.87 1.74 1.80 1.78 1.82 1.81 1.56 1.35 1.22 1.10 1.04 0.97 0.94 1.07 1.40 1.57 1.40
1.97 1.86 1.76 1.62 1.43 1.40 1.35 1.34 1.37 1.47 1.58 1.63 1.69 1.76 1.89 1.99 2.01 2.02 2.05 1.99 1.95 1.72 1.50 1.67 1.70 1.66 1.64 1.49 1.34 1.24 1.15 1.07 0.99 0.97 1.05 1.30 1.56 1.52
2.13 2.01 1.91 1.77 1.53 1.46 1.33 1.31 1.36 1.33 1.41 1.51 1.58 1.67 1.79 1.91 2.02 2.11 2.13 2.02 1.86 1.71 1.66 1.71 1.68 1.63 1.60 1.49 1.34 1.20 1.20 1.18 1.13 1.09 1.05 1.19 1.28 1.55
2.15 2.22 2.04 1.87 1.67 1.53 1.49 1.46 1.38 1.30 1.41 1.52 1.49 1.52 1.64 1.82 2.10 2.30 2.37 2.31 2.03 1.73 1.63 1.61 1.58 1.60 1.64 1.48 1.29 1.16 1.14 1.17 1.16 1.17 1.17 1.18 1.24 1.40
2.08 2.13 2.00 1.84 1.64 1.51 1.52 1.43 1.28 1.26 1.36 1.46 1.51 1.57 1.70 1.83 1.99 2.15 2.36 2.41 2.21 1.75 1.59 1.57 1.58 1.67 1.61 1.47 1.39 1.24 1.13 1.11 1.10 1.16 1.28 1.33 1.42 1.50
2.11 2.15 2.07 1.96 1.82 1.68 1.59 1.59 1.56 1.49 1.42 1.43 1.58 1.62 1.66 1.67 1.74 1.92 2.17 2.26 2.09 1.67 1.47 1.52 1.68 1.80 1.79 1.77 1.61 1.35 1.26 1.15 1.12 1.26 1.41 1.39 1.38 1.40
1.85 2.01 2.05 1.95 1.86 1.81 1.77 1.73 1.69 1.60 1.52 1.51 1.56 1.60 1.60 1.61 1.65 1.76 1.94 2.10 2.05 1.82 1.65 1.57 1.73 1.90 1.85 1.70 1.51 1.39 1.31 1.26 1.27 1.41 1.46 1.43 1.34 1.31
1.59 1.77 1.81 1.78 1.77 1.80 1.80 1.73 1.65 1.62 1.65 1.60 1.54 1.58 1.64 1.65 1.69 1.79 1.85 1.96 2.02 1.99 1.85 1.74 1.74 1.80 1.68 1.38 1.18 1.19 1.25 1.28 1.38 1.44 1.43 1.39 1.26 1.21
1.49 1.61 1.63 1.65 1.71 1.77 1.79 1.77 1.69 1.69 1.74 1.71 1.67 1.70 1.79 1.81 1.77 1.78 1.85 1.88 1.95 2.00 1.99 1.83 1.68 1.61 1.51 1.37 1.25 1.11 1.09 1.22 1.33 1.34 1.34 1.37 1.29 1.31
1.48 1.57 1.63 1.63 1.68 1.77 1.80 1.81 1.80 1.83 1.82 1.84 1.84 1.83 1.90 1.96 1.83 1.76 1.82 1.94 1.95 1.96 1.91 1.76 1.68 1.81 1.87 1.91 1.64 1.24 1.15 1.18 1.25 1.35 1.41 1.51 1.48 1.49
1.66 1.66 1.73 1.76 1.75 1.76 1.78 1.78 1.81 1.85 1.84 1.84 1.87 1.91 1.94 1.95 1.84 1.79 1.79 1.88 1.86 1.83 1.85 1.90 2.07 2.21 2.16 2.08 1.78 1.52 1.43 1.37 1.36 1.35 1.32 1.33 1.33 1.30
1.66 1.68 1.71 1.68 1.67 1.72 1.75 1.74 1.81 1.86 1.86 1.84 1.87 1.91 1.89 1.87 1.81 1.80 1.81 1.84 1.91 1.97 2.06 2.14 2.25 2.23 2.06 1.94 1.79 1.66 1.61 1.60 1.54 1.48 1.40 1.30 1.15 1.05